Regional Weather Roundup
Issued by NWS

Home | Current Version | Previous Version | Graphics & Text | Print | Product List | Glossary On
Versions: 1 2 3 4 5 6 7 8 9 10 11 12 13 14 15 16 17 18 19 20 21 22 23 24 25 26 27 28 29 30 31 32 33 34 35 36 37 38 39 40 41 42 43 44 45 46 47 48 49 50
000
ASUS43 KOAX 010402
RWRNE

WEATHER ROUNDUP FOR NEBRASKA
NATIONAL WEATHER SERVICE OMAHA NE
1000 PM CST SAT JAN 31 2015

NOTES: SATELLITE DATA IS BEING USED TO AUGMENT CLOUD COVER ABOVE
       12000 FEET.
       "FAIR" INDICATES FEW OR NO CLOUDS BELOW 12,000 FEET WITH NO
       SIGNIFICANT WEATHER AND/OR OBSTRUCTIONS TO VISIBILITY.

  * THESE STATIONS DO NOT REPORT WEATHER SUCH AS RAIN...SNOW OR FOG.

NEZ001>004-019>022-054>056-010500-
NEBRASKA PANHANDLE

CITY           SKY/WX    TMP DP  RH WIND       PRES   REMARKS
SCOTTSBLUFF    CLOUDY    26  24  92 MISG      29.97R
ALLIANCE       CLOUDY    19  15  84 N17       29.96R WCI   4
CHADRON        LGT SNOW  21  19  92 N13       30.05R VSB 3/4 WCI   9
SIDNEY         CLOUDY    24  21  88 N16       29.91R WCI  11
$$

NEZ057>060-069>072-079>082-010500-
SOUTHWEST NEBRASKA

CITY           SKY/WX    TMP DP  RH WIND       PRES   REMARKS
NORTH PLATTE   LGT SNOW  22  18  85 N20G30    29.91R FOG     WCI   7
IMPERIAL       LGT SNOW  25  21  85 N20       29.90R VSB 3/4 WCI  11
MCCOOK         LGT SNOW  31  28  89 N17G28    29.85R VSB 1   WCI  19
$$

NEZ005>010-023>029-035>040-094-010500-
NORTH CENTRAL NEBRASKA

CITY           SKY/WX    TMP DP  RH WIND       PRES   REMARKS
VALENTINE      LGT SNOW  16  12  84 N14       30.04R VSB 3/4 WCI   2
BROKEN BOW     LGT SNOW  22  18  85 N25       29.89R FOG     WCI   5
ORD            LGT SNOW  25  21  85 N17       29.89S FOG     WCI  12
$$

NEZ041-046>049-061>064-073>077-083>087-010500-
SOUTH CENTRAL NEBRASKA

CITY           SKY/WX    TMP DP  RH WIND       PRES   REMARKS
GRAND ISLAND   LGT SNOW  31  30  96 N8        29.86R FOG     WCI  23
HASTINGS       LGT SNOW  31  30  96 N7        29.82S VSB 1   WCI  24
KEARNEY *      CLOUDY    30  28  93 N12       29.84S WCI  21
$$

NEZ011>018-030>034-042>045-010500-
NORTHEAST NEBRASKA

CITY           SKY/WX    TMP DP  RH WIND       PRES   REMARKS
NORFOLK        LGT SNOW  32  31  96 N9        29.90R VSB 1   WCI  24
TEKAMAH        LGT SNOW  33  32  96 NE7       29.91F VSB 1   WCI  27
$$

NEZ050>053-065>068-078-088>093-010500-
SOUTHEAST NEBRASKA

CITY           SKY/WX    TMP DP  RH WIND       PRES   REMARKS
LINCOLN        LGT SNOW  33  31  92 E5        29.87F VSB 1   WCI  29
OMAHA EPPLEY   LGT SNOW  33  32  96 E3        29.90F VSB 1
FALLS CITY     LGT SNOW  32  32 100 SE7       29.88F VSB 1   WCI  26
$$

NEZ044-045-051>053-067-010500-
OMAHA AREA

CITY           SKY/WX    TMP DP  RH WIND       PRES   REMARKS
OMAHA EPPLEY   LGT SNOW  33  32  96 E3        29.90F VSB 1
$$


USA.gov is the U.S. government's official web portal to all federal, state and local government web resources and services.